Погода в Сешелте

Канада     49°28′25″N   123°45′28″W
темп.,
°C
ветер,
м/с
пор.,
м/с
влажн.,
%
обл.,
%
осадки,
мм/ч
давл.,
гПа
погр.,
м
15 мая, сб
сб1523:00+12с21744 0.0 101719
02:00+10с118134 0.0 101943
05:00+9ссв1185100 0.0 101942
08:00+13з1170100 0.0 1019217
11:00+17зюз325993 0.0 1018628
14:00+19зюз334859 0.0 1017799
17:00+20зюз334011 0.0 1015672
20:00+16зюз11685 0.0 101414
16 мая, вс
вс1623:00+12вюв117778 0.0 101411
02:00+11в1180100 0.0 101416
05:00+10всв11875 0.0 101429
08:00+12юв228336 0.0 1015321
11:00+15ю217025 0.0 1014522
14:00+17ю316316 0.0 1013682
17:00+17юв346233 0.0 1012534
20:00+15в2370100 0.0 101179
17 мая, пн
пн1723:00+12юв2387100 0.0 1012107
02:00+10юв2396100 0.0 1012181
05:00+10юв4696100 0.2 1013374
08:00+10юв3596100 0.6 1014420
11:00+11юв3386100 1.3 1014542
14:00+14юв4556100 0.3 10131145
17:00+11вюв4780100 1.7 1013537
20:00+9ююв3582100 1.2 1013493
18 мая, вт
вт1823:00+9ююв3587100 2.4 1013332
02:00+7ю2484100 0.8 1014273
05:00+6сз2388100 1.1 1015183
08:00+8з237962 0.5 1017340
11:00+9ююз236441 1.3 1018858
14:00+10юв44625 0.8 10171118
17:00+10юв33655 2.0 1017653
20:00+8в22745 1.2 101699
19 мая, ср
ср1923:00+5с228145 1.9 101767
02:00+5ссв118628 1.2 101853
05:00+3св118912 2.5 101853
08:00+7з118353 0.4 1018442
11:00+8зюз227563 1.0 1018863
14:00+11юз335450 0.5 10161420
17:00+12юз334627 0.6 10141195
20:00+9юз11624 0.0 101473